Starlink 5852

operational
NORAD ID: 55933 Int'l Des: 2023-037 Owner: SPXS Country: US Constellation: starlink
LEOCIRCULAR

Über Starlink 5852

Beschreibung wird geladen...

Live-Position

3D-Globus wird geladen...

Nächste Überflüge

Höhenverlauf

Altitude vs Time

uPlot chart will show altitude changes over time

Zweizeiliger Elementsatz

1 55933U 23037V 25303.94707126 .00000540 00000-0 53072-4 0 9999
2 55933 69.9990 251.6772 0002799 269.6901 90.3938 14.98333796144542
Epoch: 30. Okt. 2025 • Age: 12 hours

Aktueller Status

Höhe 581.2 km
Geschwindigkeit 7.57 km/s
Subsatellitenpunkt 50.88°N, 153.46°W
Startdatum 17. März 2023
Alter 2.6 years
Typ internet

Technische Details

Klassifizierung Payload
Masse 305.00 kg
Trockenmasse 290.00 kg
Gesamtmasse 305.00 kg
Länge 0.20 m
Durchmesser 2.80 m
Spannweite 9.00 m
Form Box + pan
Hersteller SPXS
Bus-Typ Starlink
Phasenstatus In Orbit
Besitzer/Staat SPXS/US

Große Konstellationen

Loading constellations...